Weather History for Indiana, PA

Change the Weather History Date:

Sunday, January 26, 2014

  Actual Average Record
Temperature  
Mean Temperature 20 °F -  
Max Temperature 33 °F 35 °F 66 °F (1950)
Min Temperature 6 °F 18 °F -10 °F (1961)
Degree Days  
Heating Degree Days 46    
Moisture  
Dew Point 3 °F    
Average Humidity 60    
Maximum Humidity 85    
Minimum Humidity 18    
Precipitation  
Precipitation 0.00 in - - ()
Sea Level Pressure  
Sea Level Pressure 29.67 in    
Wind  
Wind Speed 10 mph (WSW)    
Max Wind Speed 17 mph    
Max Gust Speed 29 mph    
Visibility 8 miles    
Events      
Averages and records for this station are not official NWS values.
T = Trace of Precipitation, MM = Missing Value Source: NWS Daily Summary

Daily Weather History Graph

Daily Weather History Graph

Search for Another Location

Airport:

Trip Planner

Search our weather history database for the weather conditions in past years. The results will help you decide how hot, cold, wet, or windy it might be!

Date:

Astronomy

Jan. 26, 2014 Rise Set
Actual Time 7:31 AM EST 5:26 PM EST
Civil Twilight 7:02 AM EST 5:56 PM EST
Nautical Twilight 6:29 AM EST 6:29 PM EST
Astronomical Twilight 5:56 AM EST 7:01 PM EST
Moon 3:06 AM EST (1/26) 1:14 PM EST (1/26)
Length of Visible Light 10h 54m
Length of Day
9h 55m
Waning Crescent, 24% of the Moon is Illuminated
Jan 26
Waning Crescent
Jan 30
New
Feb 6
First Quarter
Feb 14
Full
Feb 22
Last Quarter

Hourly Weather History & Observations

Time (EST) Temp. Windchill Dew Point Humidity Pressure Visibility Wind Dir Wind Speed Gust Speed Precip Events Conditions
12:15 AM 12.2 °F -2.5 °F 8.6 °F 85% 29.65 in 1.0 mi West 12.7 mph - N/A   Overcast
12:35 AM 12.2 °F -3.1 °F 5.0 °F 73% 29.66 in - West 13.8 mph 23.0 mph N/A   Overcast
12:55 AM 12.2 °F -3.7 °F 3.2 °F 67% 29.67 in 5.0 mi West 15.0 mph 20.7 mph N/A   Overcast
1:15 AM 10.4 °F -5.4 °F 1.4 °F 67% 29.68 in 3.0 mi West 13.8 mph 23.0 mph N/A   Overcast
1:35 AM 10.4 °F -4.8 °F -2.2 °F 57% 29.69 in 4.0 mi WNW 12.7 mph 24.2 mph N/A   Mostly Cloudy
1:55 AM 10.4 °F -6.0 °F -2.2 °F 57% 29.70 in 7.0 mi West 15.0 mph 20.7 mph N/A   Mostly Cloudy
2:15 AM 10.4 °F -5.4 °F -0.4 °F 62% 29.72 in 7.0 mi West 13.8 mph 23.0 mph N/A   Overcast
2:35 AM 10.4 °F -4.8 °F -0.4 °F 62% 29.73 in 7.0 mi West 12.7 mph 21.9 mph N/A   Overcast
2:55 AM 10.4 °F -4.8 °F -0.4 °F 62% 29.73 in 5.0 mi West 12.7 mph 19.6 mph N/A   Overcast
3:15 AM 8.6 °F -3.7 °F -0.4 °F 67% 29.74 in 10.0 mi WNW 8.1 mph - N/A   Overcast
3:35 AM 8.6 °F -5.5 °F -0.4 °F 67% 29.75 in 7.0 mi West 10.4 mph 19.6 mph N/A   Overcast
3:55 AM 8.6 °F -5.5 °F -0.4 °F 67% 29.74 in 10.0 mi WNW 10.4 mph - N/A   Mostly Cloudy
4:15 AM 8.6 °F -3.7 °F -0.4 °F 67% 29.75 in 10.0 mi WNW 8.1 mph 16.1 mph N/A   Scattered Clouds
4:35 AM 6.8 °F -6.9 °F -0.4 °F 72% 29.76 in 10.0 mi West 9.2 mph 17.3 mph N/A   Scattered Clouds
4:55 AM 6.8 °F -5.9 °F -0.4 °F 72% 29.76 in 10.0 mi West 8.1 mph - N/A   Scattered Clouds
5:15 AM 6.8 °F -6.9 °F -0.4 °F 72% 29.77 in 10.0 mi West 9.2 mph - N/A   Scattered Clouds
5:35 AM 6.8 °F -6.9 °F -2.2 °F 67% 29.77 in 10.0 mi West 9.2 mph - N/A   Scattered Clouds
5:55 AM 6.8 °F -9.3 °F -0.4 °F 72% 29.77 in 4.0 mi West 12.7 mph - N/A   Overcast
6:15 AM 6.8 °F -5.9 °F -0.4 °F 72% 29.76 in 10.0 mi West 8.1 mph - N/A   Mostly Cloudy
6:35 AM 6.8 °F -4.8 °F -0.4 °F 72% 29.75 in 10.0 mi West 6.9 mph - N/A   Scattered Clouds
6:55 AM 6.8 °F -5.9 °F -0.4 °F 72% 29.75 in 10.0 mi WSW 8.1 mph - N/A   Scattered Clouds
7:15 AM 6.8 °F -5.9 °F -0.4 °F 72% 29.75 in 10.0 mi WSW 8.1 mph - N/A   Clear
7:35 AM 6.8 °F -5.9 °F -0.4 °F 72% 29.76 in 10.0 mi West 8.1 mph - N/A   Clear
7:55 AM 6.8 °F -5.9 °F -0.4 °F 72% 29.77 in 10.0 mi WSW 8.1 mph - N/A   Clear
8:15 AM 6.8 °F -6.9 °F -0.4 °F 72% 29.76 in 10.0 mi WSW 9.2 mph - N/A   Clear
8:35 AM 6.8 °F -5.9 °F -2.2 °F 67% 29.74 in 10.0 mi WSW 8.1 mph - N/A   Clear
8:55 AM 8.6 °F -5.5 °F -2.2 °F 62% 29.74 in 10.0 mi WSW 10.4 mph - N/A   Clear
9:15 AM 8.6 °F -5.5 °F -2.2 °F 62% 29.74 in 10.0 mi WSW 10.4 mph - N/A   Clear
9:35 AM 8.6 °F -7.0 °F -2.2 °F 62% 29.74 in 10.0 mi SW 12.7 mph - N/A   Clear
9:55 AM 10.4 °F -3.3 °F -0.4 °F 62% 29.73 in 10.0 mi WSW 10.4 mph - N/A   Clear
10:15 AM 10.4 °F -1.5 °F -0.4 °F 62% 29.74 in 10.0 mi SW 8.1 mph - N/A   Clear
10:35 AM 10.4 °F -1.5 °F -0.4 °F 62% 29.73 in 10.0 mi WSW 8.1 mph - N/A   Scattered Clouds
10:55 AM 10.4 °F -0.4 °F -0.4 °F 62% 29.74 in 10.0 mi SW 6.9 mph - N/A   Scattered Clouds
11:15 AM 10.4 °F -1.5 °F -0.4 °F 62% 29.73 in 7.0 mi SSW 8.1 mph - N/A   Mostly Cloudy
11:35 AM 10.4 °F -0.4 °F 1.4 °F 67% 29.73 in 2.0 mi SSW 6.9 mph - N/A   Overcast
11:55 AM 10.4 °F -1.5 °F 3.2 °F 73% 29.72 in 1.5 mi SSW 8.1 mph - N/A   Overcast
12:15 PM 12.2 °F -2.5 °F 5.0 °F 73% 29.71 in 1.0 mi SW 12.7 mph 17.3 mph N/A   Overcast
12:35 PM 12.2 °F -0.2 °F 6.8 °F 79% 29.69 in 0.8 mi SSW 9.2 mph - N/A   Overcast
12:55 PM 12.2 °F -0.2 °F 6.8 °F 79% 29.67 in 0.8 mi SW 9.2 mph - N/A   Overcast
1:15 PM 12.2 °F 4.3 °F 6.8 °F 79% 29.66 in 0.8 mi SSW 4.6 mph - N/A   Overcast
1:35 PM 14.0 °F 2.9 °F 8.6 °F 79% 29.66 in 1.2 mi SSW 8.1 mph - N/A   Overcast
1:55 PM 15.8 °F 3.4 °F 6.8 °F 68% 29.64 in 2.5 mi SSW 10.4 mph - N/A   Overcast
2:15 PM 15.8 °F 7.2 °F 8.6 °F 73% 29.63 in 2.0 mi SSW 5.8 mph - N/A   Overcast
2:35 PM 15.8 °F 7.2 °F 8.6 °F 73% 29.61 in 4.0 mi SSW 5.8 mph - N/A   Overcast
2:55 PM 17.6 °F 8.2 °F 8.6 °F 68% 29.60 in 5.0 mi SSW 6.9 mph - N/A   Overcast
3:15 PM 17.6 °F 10.7 °F 8.6 °F 68% 29.60 in 5.0 mi SW 4.6 mph - N/A   Overcast
3:35 PM 17.6 °F - 8.6 °F 68% 29.61 in 10.0 mi Calm Calm - N/A   Overcast
3:55 PM 17.6 °F - 10.4 °F 73% 29.60 in 10.0 mi Calm Calm - N/A   Overcast
4:15 PM 17.6 °F - 10.4 °F 73% 29.59 in 10.0 mi Calm Calm - N/A   Overcast
4:35 PM 19.4 °F - 10.4 °F 68% 29.59 in 10.0 mi Calm Calm - N/A   Overcast
4:55 PM 19.4 °F 14.3 °F 10.4 °F 68% 29.59 in 10.0 mi WSW 3.5 mph - N/A   Overcast
5:15 PM 21.2 °F 13.6 °F 10.4 °F 63% 29.58 in 10.0 mi SW 5.8 mph - N/A   Overcast
5:35 PM 21.2 °F 12.6 °F 10.4 °F 63% 29.59 in 10.0 mi SW 6.9 mph - N/A   Overcast
5:55 PM 23.0 °F 14.7 °F 10.4 °F 59% 29.58 in 10.0 mi SW 6.9 mph - N/A   Overcast
6:15 PM 24.8 °F 16.9 °F 10.4 °F 54% 29.58 in 10.0 mi SW 6.9 mph - N/A   Overcast
6:35 PM 24.8 °F 16.9 °F 10.4 °F 54% 29.59 in 10.0 mi WSW 6.9 mph - N/A   Overcast
6:55 PM 26.6 °F 18.2 °F 10.4 °F 51% 29.59 in 10.0 mi WSW 8.1 mph - N/A   Overcast
7:15 PM 28.4 °F 18.0 °F 10.4 °F 47% 29.60 in 10.0 mi WSW 12.7 mph - N/A   Overcast
7:35 PM 30.2 °F 20.8 °F 10.4 °F 44% 29.60 in 10.0 mi WSW 11.5 mph - N/A   Overcast
7:55 PM 30.2 °F 20.8 °F 12.2 °F 47% 29.61 in 10.0 mi WSW 11.5 mph 18.4 mph N/A   Overcast
8:15 PM 32.0 °F 22.1 °F 14.0 °F 48% 29.61 in 10.0 mi WSW 13.8 mph 19.6 mph N/A   Overcast
8:35 PM 33.8 °F 23.9 °F 10.4 °F 38% 29.60 in 10.0 mi West 15.0 mph 21.9 mph N/A   Overcast
8:55 PM 33.8 °F 23.2 °F 6.8 °F 32% 29.61 in 7.0 mi WSW 17.3 mph 28.8 mph N/A   Overcast
9:15 PM 33.8 °F 24.8 °F -5.8 °F 18% 29.61 in 10.0 mi WSW 12.7 mph - N/A   Overcast
9:35 PM 33.8 °F 25.8 °F -4.0 °F 20% 29.61 in 10.0 mi WSW 10.4 mph 17.3 mph N/A   Overcast
9:55 PM 33.8 °F 25.8 °F -4.0 °F 20% 29.61 in 10.0 mi WSW 10.4 mph - N/A   Overcast
10:15 PM 33.8 °F 26.4 °F -5.8 °F 18% 29.60 in 10.0 mi SW 9.2 mph - N/A   Overcast
10:35 PM 30.2 °F 21.3 °F -5.8 °F 21% 29.59 in 10.0 mi WSW 10.4 mph - N/A   Mostly Cloudy
10:55 PM 32.0 °F 25.6 °F -5.8 °F 20% 29.60 in 10.0 mi WSW 6.9 mph - N/A   Mostly Cloudy
11:15 PM 32.0 °F 25.6 °F -7.6 °F 18% 29.59 in 10.0 mi SW 6.9 mph - N/A   Overcast
11:35 PM 32.0 °F 26.4 °F -5.8 °F 20% 29.58 in 10.0 mi SW 5.8 mph - N/A   Overcast
11:55 PM 32.0 °F 27.5 °F -7.6 °F 18% 29.56 in 10.0 mi SSW 4.6 mph - N/A   Mostly Cloudy